Time,TemperatureF,DewpointF,PressureIn,WindDirection,WindDirectionDegrees,WindSpeedMPH,WindSpeedGustMPH,Humidity,HourlyPrecipIn,Conditions,Clouds,dailyrainin,SoftwareType,DateUTC
2013-03-08 00:03:00,21.5,18.0,30.36,SE,129,0.0,1.0,85,0.00,,,0.00,weatherlink.com 1.10,2013-03-08 06:03:00,
2013-03-08 00:18:00,21.9,18.0,30.36,South,170,0.0,4.0,85,0.00,,,0.00,weatherlink.com 1.10,2013-03-08 06:18:00,
2013-03-08 00:33:00,22.1,18.0,30.36,SSE,159,0.0,2.0,84,0.00,,,0.00,weatherlink.com 1.10,2013-03-08 06:33:00,
2013-03-08 00:48:00,22.5,18.0,30.36,SE,141,1.0,4.0,83,0.00,,,0.00,weatherlink.com 1.10,2013-03-08 06:48:00,
2013-03-08 01:03:00,22.3,18.0,30.35,SE,134,0.0,5.0,83,0.00,,,0.00,weatherlink.com 1.10,2013-03-08 07:03:00,
2013-03-08 01:18:00,22.1,18.0,30.35,SSE,163,0.0,2.0,83,0.00,,,0.00,weatherlink.com 1.10,2013-03-08 07:18:00,
2013-03-08 01:33:00,22.0,18.0,30.36,SSE,149,1.0,2.0,84,0.00,,,0.00,weatherlink.com 1.10,2013-03-08 07:33:00,
2013-03-08 01:48:00,22.0,18.0,30.37,SSE,153,1.0,2.0,84,0.00,,,0.00,weatherlink.com 1.10,2013-03-08 07:48:00,
2013-03-08 02:03:00,21.6,18.0,30.37,SSE,158,0.0,1.0,85,0.00,,,0.00,weatherlink.com 1.10,2013-03-08 08:03:00,
2013-03-08 02:18:00,20.9,17.0,30.36,SSE,153,0.0,1.0,86,0.00,,,0.00,weatherlink.com 1.10,2013-03-08 08:18:00,
2013-03-08 02:33:00,19.8,16.0,30.36,SE,144,0.0,0.0,85,0.00,,,0.00,weatherlink.com 1.10,2013-03-08 08:33:00,
2013-03-08 02:48:00,18.1,14.0,30.36,SE,143,0.0,0.0,85,0.00,,,0.00,weatherlink.com 1.10,2013-03-08 08:48:00,
2013-03-08 03:03:00,17.1,14.0,30.35,SE,144,0.0,0.0,87,0.00,,,0.00,weatherlink.com 1.10,2013-03-08 09:03:00,
2013-03-08 03:18:00,16.6,14.0,30.35,SE,136,0.0,1.0,89,0.00,,,0.00,weatherlink.com 1.10,2013-03-08 09:18:00,
2013-03-08 03:33:00,17.8,15.0,30.35,SE,145,0.0,1.0,90,0.00,,,0.00,weatherlink.com 1.10,2013-03-08 09:33:00,
2013-03-08 03:48:00,18.4,16.0,30.35,SSE,153,0.0,1.0,91,0.00,,,0.00,weatherlink.com 1.10,2013-03-08 09:48:00,
2013-03-08 04:03:00,18.9,17.0,30.35,SSE,155,0.0,2.0,91,0.00,,,0.00,weatherlink.com 1.10,2013-03-08 10:03:00,
2013-03-08 04:18:00,19.2,17.0,30.35,SSE,153,1.0,2.0,91,0.00,,,0.00,weatherlink.com 1.10,2013-03-08 10:18:00,
2013-03-08 04:33:00,19.2,17.0,30.35,SE,131,0.0,2.0,90,0.00,,,0.00,weatherlink.com 1.10,2013-03-08 10:33:00,
2013-03-08 04:48:00,18.8,16.0,30.35,SSE,163,0.0,1.0,90,0.00,,,0.00,weatherlink.com 1.10,2013-03-08 10:48:00,
2013-03-08 05:03:00,18.6,16.0,30.35,SW,232,0.0,2.0,91,0.00,,,0.00,weatherlink.com 1.10,2013-03-08 11:03:00,
2013-03-08 05:18:00,18.9,17.0,30.35,SE,132,0.0,2.0,91,0.00,,,0.00,weatherlink.com 1.10,2013-03-08 11:18:00,
2013-03-08 05:33:00,19.0,17.0,30.35,SE,142,0.0,1.0,91,0.00,,,0.00,weatherlink.com 1.10,2013-03-08 11:33:00,
2013-03-08 05:49:00,18.9,17.0,30.35,SSE,148,0.0,1.0,91,0.00,,,0.00,weatherlink.com 1.10,2013-03-08 11:49:00,
2013-03-08 06:04:00,18.7,17.0,30.35,SE,145,0.0,1.0,91,0.00,,,0.00,weatherlink.com 1.10,2013-03-08 12:04:00,
2013-03-08 06:19:00,18.7,17.0,30.35,SSE,149,0.0,1.0,92,0.00,,,0.00,weatherlink.com 1.10,2013-03-08 12:19:00,
2013-03-08 06:34:00,18.7,17.0,30.35,SSE,156,0.0,1.0,92,0.00,,,0.00,weatherlink.com 1.10,2013-03-08 12:34:00,
2013-03-08 06:49:00,18.7,17.0,30.35,SSE,152,0.0,2.0,92,0.00,,,0.00,weatherlink.com 1.10,2013-03-08 12:49:00,
2013-03-08 07:04:00,18.9,17.0,30.35,SSE,149,0.0,2.0,92,0.00,,,0.00,weatherlink.com 1.10,2013-03-08 13:04:00,
2013-03-08 07:19:00,19.2,17.0,30.35,SSE,152,0.0,1.0,92,0.00,,,0.00,weatherlink.com 1.10,2013-03-08 13:19:00,
2013-03-08 07:34:00,20.0,18.0,30.34,SE,143,0.0,1.0,93,0.00,,,0.00,weatherlink.com 1.10,2013-03-08 13:34:00,
2013-03-08 07:49:00,20.9,19.0,30.34,SSE,159,0.0,4.0,93,0.00,,,0.00,weatherlink.com 1.10,2013-03-08 13:49:00,
2013-03-08 08:04:00,22.0,20.0,30.33,SE,141,1.0,2.0,92,0.00,,,0.00,weatherlink.com 1.10,2013-03-08 14:04:00,
2013-03-08 08:19:00,23.2,21.0,30.33,SE,143,2.0,5.0,91,0.00,,,0.00,weatherlink.com 1.10,2013-03-08 14:19:00,
2013-03-08 08:34:00,24.7,22.0,30.34,SE,125,1.0,2.0,89,0.00,,,0.00,weatherlink.com 1.10,2013-03-08 14:34:00,
2013-03-08 08:49:00,26.6,23.0,30.33,SE,141,0.0,4.0,86,0.00,,,0.00,weatherlink.com 1.10,2013-03-08 14:49:00,
2013-03-08 09:04:00,28.8,24.0,30.33,SE,135,0.0,5.0,81,0.00,,,0.00,weatherlink.com 1.10,2013-03-08 15:04:00,
2013-03-08 09:19:00,30.0,24.0,30.33,SSE,163,1.0,4.0,78,0.00,,,0.00,weatherlink.com 1.10,2013-03-08 15:19:00,
2013-03-08 09:34:00,31.3,25.0,30.34,SSE,166,2.0,6.0,76,0.00,,,0.00,weatherlink.com 1.10,2013-03-08 15:34:00,
2013-03-08 09:49:00,32.0,25.0,30.33,SSE,166,0.0,7.0,75,0.00,,,0.00,weatherlink.com 1.10,2013-03-08 15:49:00,
2013-03-08 10:06:00,32.7,25.0,30.33,ESE,117,2.0,5.0,74,0.00,,,0.00,weatherlink.com 1.10,2013-03-08 16:06:00,
2013-03-08 10:19:00,34.2,26.0,30.33,ESE,105,3.0,4.0,71,0.00,,,0.00,weatherlink.com 1.10,2013-03-08 16:19:00,
2013-03-08 10:34:00,34.7,26.0,30.33,SSW,212,3.0,5.0,71,0.00,,,0.00,weatherlink.com 1.10,2013-03-08 16:34:00,
2013-03-08 10:49:00,35.5,27.0,30.33,South,172,2.0,5.0,70,0.00,,,0.00,weatherlink.com 1.10,2013-03-08 16:49:00,
2013-03-08 11:04:00,36.7,27.0,30.33,South,172,2.0,7.0,68,0.00,,,0.00,weatherlink.com 1.10,2013-03-08 17:04:00,
2013-03-08 11:19:00,37.1,27.0,30.33,SSE,150,0.0,5.0,67,0.00,,,0.00,weatherlink.com 1.10,2013-03-08 17:19:00,
2013-03-08 11:35:00,37.7,27.0,30.32,SE,124,1.0,5.0,65,0.01,,,0.01,weatherlink.com 1.10,2013-03-08 17:35:00,
2013-03-08 11:50:00,38.3,27.0,30.32,SE,126,5.0,7.0,65,0.01,,,0.01,weatherlink.com 1.10,2013-03-08 17:50:00,
2013-03-08 12:05:00,38.0,27.0,30.31,SSE,158,1.0,7.0,65,0.01,,,0.01,weatherlink.com 1.10,2013-03-08 18:05:00,
2013-03-08 12:20:00,38.0,27.0,30.31,SSE,162,1.0,8.0,65,0.01,,,0.01,weatherlink.com 1.10,2013-03-08 18:20:00,
2013-03-08 12:35:00,38.3,28.0,30.30,South,186,0.0,5.0,66,0.00,,,0.01,weatherlink.com 1.10,2013-03-08 18:35:00,
2013-03-08 12:50:00,40.4,30.0,30.30,South,178,1.0,6.0,67,0.01,,,0.02,weatherlink.com 1.10,2013-03-08 18:50:00,
2013-03-08 13:05:00,39.7,32.0,30.28,South,179,1.0,6.0,74,0.01,,,0.02,weatherlink.com 1.10,2013-03-08 19:05:00,
2013-03-08 13:20:00,40.3,33.0,30.27,ESE,105,2.0,4.0,74,0.03,,,0.04,weatherlink.com 1.10,2013-03-08 19:20:00,
2013-03-08 13:35:00,39.5,32.0,30.27,SE,141,2.0,6.0,75,0.05,,,0.06,weatherlink.com 1.10,2013-03-08 19:35:00,
2013-03-08 13:50:00,39.8,32.0,30.26,SSE,162,0.0,5.0,75,0.07,,,0.09,weatherlink.com 1.10,2013-03-08 19:50:00,
2013-03-08 14:05:00,40.3,32.0,30.26,ESE,111,0.0,6.0,73,0.09,,,0.11,weatherlink.com 1.10,2013-03-08 20:05:00,
2013-03-08 14:20:00,40.4,31.0,30.25,SSW,201,4.0,7.0,70,0.10,,,0.14,weatherlink.com 1.10,2013-03-08 20:20:00,
2013-03-08 14:35:00,41.1,32.0,30.25,SE,128,3.0,6.0,69,0.10,,,0.16,weatherlink.com 1.10,2013-03-08 20:35:00,
2013-03-08 14:50:00,41.1,31.0,30.26,ESE,115,3.0,7.0,68,0.08,,,0.17,weatherlink.com 1.10,2013-03-08 20:50:00,
2013-03-08 15:05:00,40.7,31.0,30.26,SE,139,1.0,6.0,69,0.08,,,0.19,weatherlink.com 1.10,2013-03-08 21:05:00,
2013-03-08 15:20:00,40.9,31.0,30.26,SE,128,1.0,8.0,69,0.06,,,0.20,weatherlink.com 1.10,2013-03-08 21:20:00,
2013-03-08 15:35:00,40.9,31.0,30.26,East,98,4.0,7.0,69,0.05,,,0.21,weatherlink.com 1.10,2013-03-08 21:35:00,
2013-03-08 15:50:00,40.1,31.0,30.25,SE,125,2.0,3.0,71,0.05,,,0.22,weatherlink.com 1.10,2013-03-08 21:50:00,
2013-03-08 16:05:00,40.0,31.0,30.25,ESE,121,4.0,7.0,71,0.03,,,0.22,weatherlink.com 1.10,2013-03-08 22:05:00,
2013-03-08 16:20:00,39.7,31.0,30.25,South,177,2.0,6.0,72,0.03,,,0.23,weatherlink.com 1.10,2013-03-08 22:20:00,
2013-03-08 16:35:00,39.7,32.0,30.24,SSE,154,0.0,6.0,73,0.02,,,0.23,weatherlink.com 1.10,2013-03-08 22:35:00,
2013-03-08 16:50:00,39.2,31.0,30.24,ESE,110,2.0,5.0,73,0.02,,,0.24,weatherlink.com 1.10,2013-03-08 22:50:00,
2013-03-08 17:05:00,38.9,31.0,30.24,ESE,117,1.0,4.0,74,0.02,,,0.24,weatherlink.com 1.10,2013-03-08 23:05:00,
2013-03-08 17:20:00,38.6,32.0,30.24,SSE,153,0.0,3.0,76,0.01,,,0.24,weatherlink.com 1.10,2013-03-08 23:20:00,
2013-03-08 17:35:00,38.2,31.0,30.23,ESE,120,0.0,4.0,76,0.02,,,0.25,weatherlink.com 1.10,2013-03-08 23:35:00,
2013-03-08 17:50:00,37.6,31.0,30.23,East,88,0.0,2.0,78,0.01,,,0.25,weatherlink.com 1.10,2013-03-08 23:50:00,
2013-03-08 18:05:00,36.7,31.0,30.23,South,170,0.0,2.0,79,0.01,,,0.25,weatherlink.com 1.10,2013-03-09 00:05:00,
2013-03-08 18:20:00,36.3,31.0,30.23,South,184,1.0,4.0,81,0.01,,,0.25,weatherlink.com 1.10,2013-03-09 00:20:00,
2013-03-08 18:35:00,36.3,31.0,30.22,SSW,212,1.0,4.0,81,0.00,,,0.25,weatherlink.com 1.10,2013-03-09 00:35:00,
2013-03-08 18:50:00,36.0,31.0,30.22,SE,136,0.0,3.0,81,0.00,,,0.25,weatherlink.com 1.10,2013-03-09 00:50:00,
2013-03-08 19:05:00,35.3,30.0,30.21,ESE,121,0.0,2.0,82,0.00,,,0.25,weatherlink.com 1.10,2013-03-09 01:05:00,
2013-03-08 19:20:00,34.8,30.0,30.20,ESE,111,0.0,1.0,83,0.00,,,0.25,weatherlink.com 1.10,2013-03-09 01:20:00,
2013-03-08 19:35:00,34.7,30.0,30.19,SSE,155,0.0,3.0,83,0.00,,,0.25,weatherlink.com 1.10,2013-03-09 01:35:00,
2013-03-08 19:51:00,34.4,30.0,30.18,ESE,119,0.0,2.0,84,0.00,,,0.25,weatherlink.com 1.10,2013-03-09 01:51:00,
2013-03-08 20:05:00,34.1,30.0,30.18,ESE,119,1.0,3.0,84,0.00,,,0.25,weatherlink.com 1.10,2013-03-09 02:05:00,
2013-03-08 20:20:00,34.3,30.0,30.17,South,174,0.0,4.0,84,0.00,,,0.25,weatherlink.com 1.10,2013-03-09 02:20:00,
2013-03-08 20:36:00,34.1,30.0,30.16,SE,128,0.0,4.0,85,0.00,,,0.25,weatherlink.com 1.10,2013-03-09 02:36:00,
2013-03-08 20:51:00,34.7,30.0,30.16,South,172,1.0,6.0,84,0.00,,,0.25,weatherlink.com 1.10,2013-03-09 02:51:00,
2013-03-08 21:09:00,35.1,30.0,30.17,SE,144,2.0,5.0,83,0.00,,,0.25,weatherlink.com 1.10,2013-03-09 03:09:00,
2013-03-08 21:21:00,35.4,30.0,30.16,SSW,205,2.0,8.0,82,0.00,,,0.25,weatherlink.com 1.10,2013-03-09 03:21:00,
2013-03-08 21:36:00,35.5,30.0,30.16,SE,126,0.0,6.0,81,0.00,,,0.25,weatherlink.com 1.10,2013-03-09 03:36:00,
2013-03-08 21:51:00,35.7,30.0,30.15,SE,143,0.0,7.0,81,0.00,,,0.25,weatherlink.com 1.10,2013-03-09 03:51:00,
2013-03-08 22:06:00,35.6,30.0,30.15,SSE,150,2.0,9.0,81,0.00,,,0.25,weatherlink.com 1.10,2013-03-09 04:06:00,
2013-03-08 22:21:00,35.5,30.0,30.14,SSW,204,1.0,6.0,81,0.00,,,0.25,weatherlink.com 1.10,2013-03-09 04:21:00,
2013-03-08 22:36:00,35.5,30.0,30.14,SSE,148,1.0,8.0,80,0.00,,,0.25,weatherlink.com 1.10,2013-03-09 04:36:00,
2013-03-08 22:51:00,35.3,30.0,30.14,SSE,148,0.0,7.0,81,0.00,,,0.25,weatherlink.com 1.10,2013-03-09 04:51:00,
2013-03-08 23:06:00,35.3,30.0,30.13,SSE,147,2.0,9.0,81,0.00,,,0.25,weatherlink.com 1.10,2013-03-09 05:06:00,
2013-03-08 23:21:00,35.3,30.0,30.12,SSW,201,1.0,11.0,80,0.00,,,0.25,weatherlink.com 1.10,2013-03-09 05:21:00,
2013-03-08 23:36:00,35.2,30.0,30.12,SE,136,0.0,8.0,80,0.00,,,0.25,weatherlink.com 1.10,2013-03-09 05:36:00,
2013-03-08 23:51:00,35.2,30.0,30.11,West,259,3.0,5.0,81,0.00,,,0.25,weatherlink.com 1.10,2013-03-09 05:51:00,